GW2366 Weather Reports


Display with metric or nautical units.
time (UTC)temp
F
wind
direction
speed
MPH
gust
MPH
rain 1hr
in
rain 24hr
in
rain mn
in
humidity
%
barometer
mb
20260509090629 50 277 0.0 0.0 0.00 0.00 0.00 99 1014.9
20260509090126 50 277 0.0 0.0 0.00 0.00 0.00 99 1015.2
20260509085623 50 277 0.0 0.0 0.00 0.00 0.00 99 1015.0
20260509085119 50 277 0.0 0.0 0.00 0.00 0.00 99 1014.9
20260509084617 50 277 0.0 0.0 0.00 0.00 0.00 99 1015.0
20260509084113 50 276 0.0 0.0 0.00 0.00 0.00 99 1015.1
20260509083611 50 276 0.0 0.0 0.00 0.00 0.00 99 1015.1
20260509083107 51 276 0.0 0.0 0.00 0.00 0.00 99 1015.1
20260509082605 51 276 0.0 0.0 0.00 0.00 0.00 99 1015.1
20260509082056 51 276 0.0 0.0 0.00 0.00 0.00 99 1015.1
20260509081553 51 277 0.0 0.0 0.00 0.00 0.00 99 1015.2
20260509081050 51 277 0.0 0.0 0.00 0.00 0.00 99 1015.1
20260509080548 51 277 0.0 0.0 0.00 0.00 0.00 99 1015.0
20260509080046 51 277 0.0 0.0 0.00 0.00 0.00 99 1015.3
20260509075543 51 277 0.0 0.0 0.00 0.00 0.00 99 1015.2
20260509075041 51 277 0.0 0.0 0.00 0.00 0.00 99 1015.3
20260509074537 51 277 0.0 0.0 0.00 0.00 0.00 99 1015.2
20260509074034 51 277 0.0 0.0 0.00 0.00 0.00 99 1015.2
20260509073531 51 277 0.0 0.0 0.00 0.00 0.00 99 1015.4
20260509073027 51 277 0.0 0.0 0.00 0.00 0.00 99 1015.2
20260509072524 51 276 0.0 0.0 0.00 0.00 0.00 99 1015.3
20260509072021 51 277 0.0 0.0 0.00 0.00 0.00 99 1015.3
20260509071517 51 277 0.0 0.0 0.00 0.00 0.00 99 1015.2
20260509071015 51 277 0.0 0.0 0.00 0.00 0.00 99 1015.4
20260509070512 51 277 0.0 0.0 0.00 0.00 0.00 99 1015.5
20260509070008 51 277 0.0 0.0 0.00 0.01 0.01 99 1015.5
20260509065503 52 277 0.0 0.0 0.00 0.01 0.01 99 1015.7
20260509065000 51 277 0.0 0.0 0.00 0.01 0.01 99 1015.7
20260509064458 52 277 0.0 0.0 0.00 0.01 0.01 99 1015.5
20260509063956 52 277 0.0 0.0 0.00 0.01 0.01 99 1015.5
20260509063451 52 277 0.0 0.0 0.00 0.01 0.01 99 1015.5
20260509062948 52 277 0.0 0.0 0.00 0.01 0.01 99 1015.8
20260509062445 51 277 0.0 0.0 0.00 0.01 0.01 99 1015.5
20260509061943 52 277 0.0 0.0 0.00 0.01 0.01 99 1015.8
20260509061440 52 277 0.0 0.0 0.00 0.01 0.01 99 1015.9
20260509060937 53 277 0.0 0.0 0.00 0.01 0.01 99 1015.9
20260509060435 52 277 0.0 0.0 0.00 0.01 0.01 99 1015.7
20260509055930 53 277 0.0 0.0 0.00 0.01 0.01 99 1015.7
20260509055425 53 276 0.0 0.0 0.00 0.01 0.01 99 1015.9
20260509054922 52 277 0.0 0.0 0.00 0.01 0.01 99 1015.9
20260509054419 52 277 0.0 0.0 0.00 0.01 0.01 99 1015.8
20260509053917 53 276 0.0 0.0 0.00 0.01 0.01 99 1015.9
20260509053414 53 276 0.0 0.0 0.00 0.01 0.01 99 1015.9
20260509052912 53 271 0.0 0.0 0.00 0.01 0.01 99 1015.9
20260509052409 54 279 0.0 0.0 0.00 0.01 0.01 99 1015.8
20260509051906 54 279 0.0 0.0 0.00 0.01 0.01 99 1016.1
20260509051359 54 279 0.0 0.0 0.00 0.01 0.01 98 1016.0
20260509050856 54 281 0.0 0.0 0.00 0.01 0.01 98 1016.0
20260509050352 54 283 0.0 0.0 0.00 0.01 0.01 98 1015.9
20260509045849 54 282 0.0 0.0 0.00 0.01 0.01 98 1015.8
20260509045346 54 282 0.0 0.0 0.00 0.01 0.01 98 1015.9
20260509044843 54 282 0.0 0.0 0.00 0.01 0.01 98 1015.7
20260509044341 55 282 0.0 0.0 0.00 0.01 0.01 98 1015.8
20260509043837 54 282 0.0 0.0 0.00 0.01 0.01 97 1015.8
20260509043333 55 287 0.0 1.0 0.00 0.01 0.01 97 1015.7
20260509042829 55 289 0.0 0.0 0.00 0.01 0.01 97 1015.8
20260509042326 55 289 0.0 0.0 0.00 0.01 0.01 96 1015.5
20260509041823 55 289 0.0 0.0 0.00 0.01 0.01 96 1015.7
20260509041320 55 289 0.0 0.0 0.00 0.01 0.01 95 1015.7
20260509040818 56 289 0.0 0.0 0.00 0.01 0.01 96 1015.7
20260509040315 56 289 0.0 0.0 0.00 0.01 0.01 95 1015.4
20260509035812 56 287 1.0 1.0 0.00 0.01 0.01 95 1015.3
20260509035309 57 287 0.0 0.0 0.00 0.01 0.01 94 1015.4
20260509034805 57 287 0.0 0.0 0.00 0.01 0.01 94 1015.7
20260509034303 57 287 0.0 0.0 0.00 0.01 0.01 93 1015.3
20260509033800 57 287 0.0 0.0 0.00 0.01 0.01 93 1015.5
20260509033257 57 347 0.0 0.0 0.00 0.01 0.01 92 1015.3
20260509032754 58 347 0.0 0.0 0.00 0.01 0.01 91 1015.3
20260509032251 58 347 0.0 0.0 0.00 0.01 0.01 91 1015.4
20260509031748 59 340 0.0 0.0 0.00 0.01 0.01 90 1015.3
20260509031246 60 337 0.0 0.0 0.00 0.01 0.01 89 1015.0
20260509030744 60 338 0.0 0.0 0.00 0.01 0.01 88 1015.3
20260509030241 61 304 0.0 0.0 0.00 0.01 0.01 87 1015.0
20260509025738 61 16 0.0 0.0 0.00 0.01 0.01 86 1015.0
20260509025233 62 50 1.0 2.0 0.00 0.01 0.01 85 1015.0
20260509024728 62 1 1.0 2.0 0.00 0.01 0.01 84 1015.1
20260509024224 63 2 0.0 0.0 0.00 0.01 0.01 83 1015.1
20260509023722 64 358 0.0 0.0 0.00 0.01 0.01 82 1015.1
20260509023219 64 355 0.0 0.0 0.00 0.01 0.01 81 1015.2
20260509022715 65 355 0.0 0.0 0.00 0.01 0.01 79 1015.0
20260509022213 66 347 1.0 2.0 0.00 0.01 0.01 78 1014.9
20260509021710 66 29 2.0 2.0 0.00 0.01 0.01 78 1014.9
20260509021208 66 343 0.0 0.0 0.00 0.01 0.01 77 1015.1
20260509020705 67 28 1.0 1.0 0.00 0.01 0.01 76 1014.7
20260509020202 67 38 1.0 1.0 0.00 0.01 0.01 76 1015.1
20260509015701 68 94 2.0 2.0 0.00 0.01 0.01 75 1014.9
20260509015158 68 8 1.0 1.0 0.00 0.01 0.01 75 1015.0
20260509014654 68 48 1.0 1.0 0.00 0.01 0.01 74 1014.9
20260509014150 68 45 1.0 1.0 0.00 0.01 0.01 73 1014.9
20260509013648 69 69 2.0 2.0 0.00 0.01 0.01 73 1015.0
20260509013144 70 32 1.0 1.0 0.00 0.01 0.01 72 1014.8
20260509012640 70 1 0.0 0.0 0.00 0.01 0.01 72 1015.1
20260509012137 70 315 0.0 0.0 0.00 0.01 0.01 71 1015.1
20260509011635 70 50 1.0 1.0 0.00 0.01 0.01 72 1015.0
20260509011132 69 258 0.0 1.0 0.00 0.01 0.01 71 1015.1
20260509010630 69 265 0.0 1.0 0.00 0.01 0.01 71 1015.2
20260509010126 69 68 2.0 2.0 0.00 0.01 0.01 72 1015.4
20260509005624 69 261 1.0 1.0 0.00 0.01 0.01 71 1015.1
20260509005120 69 226 1.0 1.0 0.00 0.01 0.01 71 1015.3
20260509004616 69 280 1.0 1.0 0.00 0.01 0.01 71 1015.2
20260509004113 70 209 1.0 2.0 0.00 0.01 0.01 70 1015.1
20260509003612 71 66 1.0 1.0 0.00 0.01 0.01 70 1015.2
20260509003109 71 94 3.0 3.0 0.00 0.01 0.01 70 1015.2
20260509002606 71 72 2.0 2.0 0.00 0.01 0.01 69 1015.3
20260509002103 72 109 2.0 2.0 0.00 0.01 0.01 66 1015.5
20260509001601 72 213 1.0 2.0 0.00 0.01 0.01 66 1015.3
20260509001056 72 43 1.0 1.0 0.00 0.01 0.01 66 1015.3
20260509000555 72 137 2.0 2.0 0.00 0.01 0.01 66 1015.5
20260509000050 72 215 1.0 2.0 0.00 0.01 0.01 66 1015.5
20260508235548 72 177 2.0 2.0 0.00 0.01 0.01 67 1015.4
20260508235044 73 215 1.0 2.0 0.00 0.01 0.01 66 1015.5
20260508234542 74 246 1.0 2.0 0.00 0.01 0.01 65 1015.5
20260508234039 73 232 1.0 2.0 0.00 0.01 0.01 64 1015.9
20260508233538 73 68 1.0 2.0 0.00 0.01 0.01 66 1015.9
20260508233035 73 357 1.0 2.0 0.00 0.01 0.01 66 1015.7
20260508232532 73 186 2.0 2.0 0.00 0.01 0.01 64 1015.9
20260508232029 73 32 2.0 2.0 0.00 0.01 0.01 68 1015.8
20260508231526 73 15 1.0 1.0 0.00 0.01 0.01 67 1015.8
20260508231023 73 90 3.0 5.0 0.00 0.01 0.01 67 1015.9
20260508230520 73 41 2.0 2.0 0.00 0.01 0.01 65 1016.0
20260508230017 74 64 3.0 3.0 0.00 0.01 0.01 65 1016.1
20260508225514 74 75 2.0 2.0 0.00 0.01 0.01 66 1016.0
20260508225010 74 42 3.0 3.0 0.00 0.01 0.01 65 1016.1
20260508224509 73 101 5.0 6.0 0.00 0.01 0.01 66 1016.2
20260508224005 73 73 2.0 2.0 0.00 0.01 0.01 68 1016.2
20260508223504 74 70 4.0 5.0 0.00 0.01 0.01 67 1016.3
20260508223001 75 52 3.0 3.0 0.00 0.01 0.01 65 1016.3
20260508222458 77 301 2.0 3.0 0.00 0.01 0.01 60 1016.3
20260508221954 78 291 1.0 1.0 0.00 0.01 0.01 58 1016.4
20260508221450 78 297 0.0 1.0 0.00 0.01 0.01 61 1016.6
20260508220946 77 284 2.0 2.0 0.00 0.01 0.01 59 1016.7
20260508220443 75 199 1.0 2.0 0.00 0.01 0.01 61 1016.7
20260508215939 76 8 1.0 1.0 0.00 0.01 0.01 61 1016.5
20260508215437 75 298 1.0 2.0 0.00 0.01 0.01 64 1016.7
20260508214933 74 229 2.0 2.0 0.00 0.01 0.01 64 1016.8
20260508214431 74 71 1.0 2.0 0.00 0.01 0.01 68 1016.7
20260508213926 74 262 1.0 2.0 0.00 0.01 0.01 66 1016.8
20260508213424 73 8 1.0 1.0 0.00 0.01 0.01 68 1017.0
20260508212919 72 251 3.0 5.0 0.00 0.01 0.01 68 1017.0
20260508212417 72 253 3.0 3.0 0.00 0.01 0.01 70 1017.1
20260508211912 72 257 3.0 3.0 0.00 0.01 0.01 71 1017.4
20260508211408 71 223 1.0 2.0 0.00 0.01 0.01 72 1017.0
20260508210906 71 126 3.0 3.0 0.00 0.01 0.01 71 1017.3
20260508210402 71 225 2.0 2.0 0.00 0.01 0.01 72 1017.2
20260508205858 71 167 3.0 3.0 0.00 0.01 0.01 72 1017.5
20260508205355 71 201 3.0 3.0 0.00 0.01 0.01 71 1017.4
20260508204851 70 175 2.0 2.0 0.00 0.01 0.01 73 1017.5
20260508204349 69 89 4.0 5.0 0.00 0.01 0.01 76 1017.6
20260508203844 69 348 1.0 1.0 0.00 0.01 0.01 75 1017.4
20260508203341 68 151 3.0 3.0 0.00 0.01 0.01 76 1017.5
20260508202836 68 87 1.0 1.0 0.00 0.01 0.01 80 1017.5
20260508202333 68 66 2.0 2.0 0.00 0.01 0.01 78 1017.5
20260508201831 68 61 3.0 5.0 0.00 0.01 0.01 77 1017.8
20260508201328 67 26 3.0 3.0 0.00 0.01 0.01 79 1017.8
20260508200824 67 91 5.0 6.0 0.00 0.01 0.01 77 1017.8
20260508200320 69 37 2.0 3.0 0.00 0.01 0.01 77 1017.7
20260508195811 68 41 1.0 1.0 0.00 0.01 0.01 78 1017.7
20260508195308 68 185 3.0 3.0 0.00 0.01 0.01 77 1017.9
20260508194804 68 293 1.0 2.0 0.00 0.01 0.01 77 1017.8
20260508194302 68 78 2.0 3.0 0.00 0.01 0.01 79 1017.8
20260508193759 68 303 0.0 1.0 0.00 0.01 0.01 80 1018.1
20260508193255 66 129 2.0 2.0 0.00 0.01 0.01 79 1018.2
20260508192751 66 133 4.0 5.0 0.00 0.01 0.01 79 1018.0
20260508192249 66 48 3.0 5.0 0.00 0.01 0.01 78 1017.9
20260508191746 67 257 0.0 0.0 0.00 0.01 0.01 77 1018.0
20260508191243 67 108 1.0 2.0 0.00 0.01 0.01 79 1018.1
20260508190740 66 229 3.0 3.0 0.00 0.01 0.01 77 1018.2
20260508190236 66 87 2.0 3.0 0.00 0.01 0.01 81 1018.2
20260508185733 65 233 3.0 3.0 0.00 0.01 0.01 80 1018.2
20260508185230 66 284 1.0 2.0 0.00 0.01 0.01 78 1018.0
20260508184727 65 288 1.0 1.0 0.00 0.01 0.01 81 1018.2
20260508184224 65 241 3.0 3.0 0.00 0.01 0.01 79 1018.4
20260508183721 64 267 0.0 1.0 0.00 0.01 0.01 81 1018.4
20260508183217 64 299 0.0 1.0 0.00 0.01 0.01 82 1018.3
20260508182713 63 235 1.0 2.0 0.00 0.01 0.01 83 1018.4
20260508182210 63 256 2.0 2.0 0.00 0.01 0.01 85 1018.4
20260508181706 62 304 2.0 2.0 0.00 0.01 0.01 86 1018.4
20260508181203 62 234 1.0 2.0 0.00 0.01 0.01 85 1018.3
20260508180700 61 285 1.0 2.0 0.00 0.01 0.01 86 1018.6
20260508180157 60 147 1.0 1.0 0.00 0.01 0.01 87 1018.5
20260508175654 60 245 1.0 1.0 0.00 0.01 0.01 87 1018.5
20260508175150 60 271 1.0 1.0 0.00 0.01 0.01 88 1018.6
20260508174648 59 333 1.0 2.0 0.00 0.01 0.01 91 1018.6
20260508174144 59 301 2.0 3.0 0.00 0.01 0.01 90 1018.6
20260508173641 58 337 0.0 0.0 0.00 0.01 0.01 92 1018.7
20260508173137 57 309 0.0 0.0 0.00 0.01 0.01 94 1018.7
20260508172635 56 257 2.0 5.0 0.00 0.01 0.01 96 1018.7
20260508172131 55 15 1.0 1.0 0.00 0.01 0.01 97 1018.8
20260508171628 54 260 1.0 1.0 0.00 0.01 0.01 98 1018.8
20260508171124 54 258 1.0 1.0 0.00 0.01 0.01 99 1018.7
20260508170621 54 334 0.0 0.0 0.00 0.01 0.01 99 1018.5
20260508170119 54 234 2.0 2.0 0.00 0.01 0.01 99 1018.4
20260508165616 53 186 1.0 2.0 0.00 0.01 0.01 99 1018.4
20260508165113 53 289 0.0 1.0 0.00 0.01 0.01 99 1018.6
20260508164609 53 279 0.0 0.0 0.00 0.01 0.01 99 1018.5
20260508164106 53 300 0.0 1.0 0.00 0.01 0.01 99 1018.5
20260508163603 52 270 2.0 2.0 0.00 0.01 0.01 99 1018.4
20260508163100 53 281 0.0 1.0 0.00 0.01 0.01 99 1018.5
20260508162557 52 112 2.0 2.0 0.00 0.01 0.01 99 1018.5
20260508162054 52 329 0.0 0.0 0.00 0.01 0.01 99 1018.5
20260508161551 52 292 0.0 1.0 0.00 0.01 0.01 99 1018.6
20260508161048 52 306 0.0 0.0 0.00 0.01 0.01 99 1018.6
20260508160547 52 296 0.0 0.0 0.00 0.01 0.01 99 1018.6
20260508160043 53 301 0.0 0.0 0.00 0.01 0.01 99 1018.6
20260508155540 53 21 0.0 0.0 0.00 0.01 0.01 99 1018.5
20260508155037 51 26 0.0 0.0 0.00 0.01 0.01 99 1018.5
20260508154534 51 333 0.0 0.0 0.00 0.01 0.01 99 1018.4
20260508154031 51 68 0.0 0.0 0.00 0.01 0.01 99 1018.2
20260508153528 51 27 0.0 0.0 0.00 0.01 0.01 99 1018.2
20260508153024 51 45 1.0 2.0 0.00 0.01 0.01 99 1018.3
20260508152521 50 131 1.0 2.0 0.00 0.01 0.01 99 1018.3
20260508152017 50 49 0.0 0.0 0.00 0.01 0.01 99 1018.2
20260508151514 50 89 1.0 2.0 0.00 0.01 0.01 99 1018.2
20260508151010 50 83 0.0 0.0 0.00 0.01 0.01 99 1018.1
20260508150508 50 56 0.0 0.0 0.00 0.01 0.01 99 1018.3
20260508150004 50 32 0.0 0.0 0.00 0.01 0.01 99 1018.1
20260508145500 50 27 0.0 0.0 0.00 0.01 0.01 99 1018.2
20260508144956 50 50 0.0 0.0 0.00 0.01 0.01 99 1018.3
20260508144454 50 317 0.0 0.0 0.00 0.01 0.01 99 1018.3
20260508143951 50 328 0.0 0.0 0.00 0.01 0.01 99 1018.2
20260508143449 50 282 0.0 0.0 0.00 0.01 0.01 99 1018.0
20260508142945 50 319 0.0 0.0 0.00 0.01 0.01 99 1017.7
20260508142442 50 323 0.0 0.0 0.00 0.01 0.01 99 1017.9
20260508141939 50 312 0.0 0.0 0.00 0.01 0.01 99 1017.8
20260508141436 50 308 0.0 0.0 0.07 0.01 0.01 99 1017.7
20260508140933 50 359 0.0 0.0 0.07 0.01 0.01 99 1017.8
20260508140430 50 25 0.0 0.0 0.00 0.00 0.00 99 1017.7
20260508135925 49 307 0.0 0.0 0.00 0.00 0.00 99 1017.8
20260508135422 49 17 0.0 0.0 0.00 0.00 0.00 99 1017.7
20260508134919 49 330 0.0 0.0 0.00 0.00 0.00 99 1017.6
20260508134415 49 2 0.0 0.0 0.00 0.00 0.00 99 1017.5
20260508133912 49 327 0.0 0.0 0.00 0.00 0.00 99 1017.5
20260508133410 49 322 0.0 0.0 0.00 0.00 0.00 99 1017.6
20260508132907 49 320 0.0 0.0 0.00 0.00 0.00 99 1017.6
20260508132405 49 319 0.0 0.0 0.00 0.00 0.00 99 1017.4
20260508131901 49 319 0.0 0.0 0.00 0.00 0.00 99 1017.7
20260508131356 49 353 0.0 0.0 0.00 0.00 0.00 99 1017.6
20260508130854 49 320 0.0 0.0 0.00 0.00 0.00 99 1017.5
20260508130350 49 316 0.0 0.0 0.00 0.00 0.00 99 1017.6
20260508125846 49 286 0.0 0.0 0.00 0.00 0.00 99 1017.5
20260508125342 49 273 0.0 0.0 0.00 0.00 0.00 99 1017.6
20260508124841 49 32 0.0 0.0 0.00 0.00 0.00 99 1017.4
20260508124338 49 306 0.0 0.0 0.00 0.00 0.00 99 1017.5
20260508123836 49 335 0.0 0.0 0.00 0.00 0.00 99 1017.3
20260508123334 49 22 0.0 1.0 0.00 0.00 0.00 99 1017.4
20260508122830 49 338 0.0 0.0 0.00 0.00 0.00 99 1017.4
20260508122327 49 48 2.0 2.0 0.00 0.00 0.00 99 1017.3
20260508121824 49 7 0.0 1.0 0.00 0.00 0.00 99 1017.3
20260508121323 49 343 0.0 0.0 0.00 0.00 0.00 99 1017.2
20260508120820 49 16 0.0 0.0 0.00 0.00 0.00 99 1017.4
20260508120318 49 9 1.0 2.0 0.00 0.00 0.00 99 1017.4
20260508115815 49 13 0.0 0.0 0.00 0.00 0.00 99 1017.4
20260508115312 49 320 0.0 0.0 0.00 0.00 0.00 99 1017.2
20260508114809 49 335 0.0 0.0 0.00 0.00 0.00 99 1017.4
20260508114306 49 45 0.0 0.0 0.00 0.00 0.00 99 1017.2
20260508113802 49 90 0.0 0.0 0.00 0.00 0.00 99 1017.2
20260508113301 49 340 0.0 0.0 0.00 0.00 0.00 99 1017.5
20260508112756 49 25 0.0 0.0 0.00 0.00 0.00 99 1017.5
20260508112254 49 23 0.0 0.0 0.00 0.00 0.00 99 1017.4
20260508111749 49 337 0.0 0.0 0.00 0.00 0.00 99 1017.3
20260508111247 49 44 1.0 2.0 0.00 0.00 0.00 99 1017.4
20260508110744 49 17 0.0 1.0 0.00 0.00 0.00 99 1017.2
20260508110241 49 11 0.0 0.0 0.00 0.00 0.00 99 1017.5
20260508105736 49 7 1.0 1.0 0.00 0.00 0.00 99 1017.3
20260508105233 49 4 0.0 0.0 0.00 0.00 0.00 99 1017.5
20260508104730 49 330 0.0 0.0 0.00 0.00 0.00 99 1017.6
20260508104227 49 339 0.0 0.0 0.00 0.00 0.00 99 1017.6
20260508103725 49 39 1.0 1.0 0.00 0.00 0.00 99 1017.3
20260508103221 49 3 0.0 1.0 0.00 0.00 0.00 99 1017.5
20260508102718 49 24 0.0 1.0 0.00 0.00 0.00 99 1017.3
20260508102216 49 339 0.0 0.0 0.00 0.00 0.00 99 1017.4
20260508101713 49 340 0.0 0.0 0.00 0.00 0.00 99 1017.4
20260508101211 49 351 0.0 0.0 0.00 0.00 0.00 99 1017.4
20260508100708 49 283 0.0 0.0 0.00 0.00 0.00 99 1017.4
20260508100206 49 283 0.0 0.0 0.00 0.00 0.00 99 1017.5
20260508095702 49 283 0.0 0.0 0.00 0.00 0.00 99 1017.6
20260508095200 49 283 0.0 0.0 0.00 0.00 0.00 99 1017.4
20260508094656 49 283 0.0 0.0 0.00 0.00 0.00 99 1017.4
20260508094153 49 283 0.0 0.0 0.00 0.00 0.00 99 1017.7
20260508093650 49 284 0.0 0.0 0.00 0.00 0.00 99 1017.7
20260508093148 49 301 0.0 0.0 0.00 0.00 0.00 99 1017.6
20260508092644 49 341 0.0 0.0 0.00 0.00 0.00 99 1017.3
20260508092143 49 341 0.0 0.0 0.00 0.00 0.00 99 1017.3
20260508091640 49 341 0.0 0.0 0.00 0.00 0.00 99 1017.6
20260508091137 49 342 0.0 0.0 0.00 0.00 0.00 99 1017.4